Home > Time Zones > World Clock > Weather > France > Caen > Past weeks

Flag for France Weather past 2 weeks in Caen, France

Now
43 °F

Partly sunny.


Feels Like: 36 °F
Forecast: 39 / 47 °F
Wind: 14 mph from Southwest

Location: Caen Airport

Current Time: Mar 3, 2015 at 9:00:53 AM

Latest Report: Mar 3, 2015 at 8:30 AM


Visibility: N/A

Pressure: 30.07 "Hg

Humidity: 81%

Dew point: 37 °F

Location of CaenLocation

Historic Weather in Caen — Graph

°F

Caen temperature yesterday

Maximum temperature yesterday: 48 °F (at 11:30 AM)
Minimum temperature yesterday: 39 °F (at 7:00 PM)
Average temperature yesterday: 44 °F

Past Weeks' High & Low Weather Summary

 TemperatureHumidityPressure
High54 °F (Feb 25, 3:00 PM)100% (Feb 16, 8:00 AM)30.77 "Hg (Feb 16, 8:00 AM)
Low27 °F (Feb 18, 8:00 AM)41% (Feb 18, 4:30 PM)29.42 "Hg (Feb 23, 2:30 AM)
Average43 °F83%29.99 "Hg
* Reported Feb 16 8:00 AM — Mar 3 8:00 AM, Caen, Weather by CustomWeather, © 2015

Note: Actual official high and low records may vary slightly from our data, if they occured in-between our weather recording intervals... More about our weather records

Advertising

Caen weather history for previous 24 hours

 ConditionsComfort  
Time TempWeatherWind HumidityBarometerVisibility
8:00 AM
Tue, Mar 3
39 °FScattered clouds.9 mph87%30.07 "HgN/A
7:30 AM39 °FClear.12 mph87%30.07 "HgN/A
7:00 AM41 °FClear.14 mph81%30.07 "HgN/A
6:30 AM41 °FClear.13 mph81%30.07 "HgN/A
6:00 AM41 °FClear.14 mph81%30.07 "HgN/A
5:30 AM41 °FClear.15 mph81%30.07 "HgN/A
5:00 AM41 °FClear.13 mph76%30.09 "HgN/A
4:30 AM41 °FClear.15 mph76%30.09 "HgN/A
4:00 AM41 °FClear.13 mph76%30.09 "HgN/A
3:30 AM41 °FClear.14 mph76%30.09 "HgN/A
3:00 AM39 °FClear.12 mph87%30.12 "HgN/A
2:30 AM39 °FClear.9 mph87%30.12 "HgN/A
2:00 AM39 °FClear.10 mph87%30.12 "HgN/A
1:30 AM39 °FClear.10 mph81%30.12 "HgN/A
1:00 AM37 °FClear.9 mph87%30.12 "HgN/A
12:30 AM37 °FClear.8 mph93%30.12 "HgN/A
12:00 AM37 °FPassing clouds.6 mph93%30.12 "HgN/A
11:30 PM
Mon, Mar 2
41 °FMostly cloudy.10 mph87%30.12 "HgN/A
11:00 PM41 °FPassing clouds.10 mph81%30.12 "HgN/A
10:30 PM41 °FOvercast.10 mph81%30.12 "HgN/A
10:00 PM41 °FOvercast.10 mph81%30.12 "HgN/A
9:30 PM41 °FPartly cloudy.9 mph81%30.12 "HgN/A
9:00 PM41 °FPassing clouds.10 mph81%30.12 "HgN/A
8:30 PM41 °FPassing clouds.9 mph81%30.09 "HgN/A
8:00 PM41 °FPassing clouds.13 mph81%30.09 "HgN/A
7:30 PM43 °FPassing clouds.16 mph76%30.09 "HgN/A
7:00 PM39 °FPartly cloudy.6 mph81%30.09 "HgN/A
6:30 PM45 °FMostly cloudy.12 mph61%30.07 "HgN/A
6:00 PM45 °FBroken clouds.15 mph61%30.07 "HgN/A
5:30 PM46 °FBroken clouds.17 mph57%30.04 "HgN/A
5:00 PM46 °FPassing clouds.22 mph53%30.04 "HgN/A
4:30 PM46 °FClear.23 mph53%30.04 "HgN/A
4:00 PM46 °FPassing clouds.21 mph62%30.04 "HgN/A
3:30 PM48 °FClear.26 mph46%30.01 "HgN/A
3:00 PM48 °FScattered clouds.25 mph54%30.01 "HgN/A
2:30 PM46 °FScattered clouds.22 mph57%30.01 "HgN/A
2:00 PM48 °FClear.25 mph50%29.98 "HgN/A
1:30 PM46 °FClear.29 mph50%29.98 "HgN/A
1:00 PM48 °FPassing clouds.25 mph58%29.95 "HgN/A
12:30 PM45 °FScattered clouds.21 mph76%29.95 "HgN/A
12:00 PM46 °FPartly sunny.30 mph62%29.92 "HgN/A
11:30 AM48 °FBroken clouds.22 mph71%29.92 "HgN/A
11:00 AM46 °FPartly sunny.25 mph71%29.89 "HgN/A
10:30 AM46 °FPassing clouds.18 mph76%29.89 "HgN/A
10:00 AM45 °FLight rain. Broken clouds.24 mph81%29.86 "HgN/A
9:30 AM45 °FPassing clouds.21 mph81%29.86 "HgN/A
9:00 AM45 °FPassing clouds.20 mph81%29.83 "HgN/A
Weather by CustomWeather, © 2015

See weather overviewHow to use our weather pages